When you browse on this site, cookies collect data to enhance your experience and personalize the content and advertising you see.
Visit our Privacy Policy to learn more. By continuing to use the site, you agree to this use of cookies and data.
  • In Hungary
  • List of Countries
  • For 7 days
  • Water Temperature
  • Satellite Maps
  • Weather Map
  • News
  • Weather Widgets
  • user-avatar
    Login

    Hourly Weather Center Point

    Today, 21 March, Thursday

    Time Temperature Precipitation Wind Pressure Humidity
    00:00 +10°C° 0 mm 1 mps 740 mmHg 65%
    01:00 +9°C° 0.1 mm 2 mps 740 mmHg 72%
    02:00 +8°C° 0.1 mm 2 mps 740 mmHg 79%
    03:00 +8°C° 0.1 mm 2 mps 739 mmHg 86%
    04:00 +8°C° 0 mm 2 mps 740 mmHg 87%
    05:00 +7°C° 0 mm 3 mps 740 mmHg 88%
    06:00 +7°C° 0 mm 3 mps 740 mmHg 90%
    07:00 +8°C° 0 mm 3 mps 740 mmHg 79%
    08:00 +10°C° 0 mm 3 mps 740 mmHg 69%
    09:00 +11°C° 0 mm 4 mps 740 mmHg 59%
    10:00 +12°C° 0 mm 4 mps 740 mmHg 54%
    11:00 +14°C° 0 mm 4 mps 740 mmHg 49%
    12:00 +15°C° 0 mm 5 mps 740 mmHg 44%
    13:00 +16°C° 0 mm 5 mps 739 mmHg 44%
    14:00 +16°C° 0 mm 5 mps 739 mmHg 43%
    15:00 +17°C° 0 mm 5 mps 738 mmHg 42%
    16:00 +15°C° 0 mm 4 mps 738 mmHg 47%
    17:00 +14°C° 0 mm 4 mps 738 mmHg 52%
    18:00 +13°C° 0 mm 3 mps 739 mmHg 58%
    19:00 +12°C° 0 mm 3 mps 739 mmHg 61%
    20:00 +10°C° 0 mm 3 mps 740 mmHg 65%
    21:00 +9°C° 0 mm 3 mps 741 mmHg 68%
    22:00 +8°C° 0 mm 3 mps 741 mmHg 71%
    23:00 +8°C° 0 mm 3 mps 741 mmHg 74%

    Tomorrow, 22 March, Friday

    Time Temperature Precipitation Wind Pressure Humidity
    00:00 +7°C° 0 mm 2 mps 741 mmHg 77%
    01:00 +6°C° 0 mm 2 mps 741 mmHg 79%
    02:00 +5°C° 0 mm 2 mps 741 mmHg 81%
    03:00 +6°C° 0 mm 1 mps 741 mmHg 83%
    04:00 +5°C° 0 mm 1 mps 741 mmHg 84%
    05:00 +5°C° 0 mm 1 mps 742 mmHg 85%
    06:00 +5°C° 0 mm 1 mps 742 mmHg 86%
    07:00 +7°C° 0 mm 1 mps 742 mmHg 76%
    08:00 +8°C° 0 mm 2 mps 743 mmHg 66%
    09:00 +11°C° 0 mm 3 mps 743 mmHg 56%
    10:00 +13°C° 0 mm 3 mps 743 mmHg 50%
    11:00 +14°C° 0 mm 3 mps 743 mmHg 45%
    12:00 +17°C° 0 mm 3 mps 742 mmHg 40%
    13:00 +18°C° 0 mm 3 mps 742 mmHg 39%
    14:00 +18°C° 0 mm 3 mps 741 mmHg 38%
    15:00 +19°C° 0 mm 3 mps 741 mmHg 37%
    16:00 +17°C° 0 mm 3 mps 741 mmHg 44%
    17:00 +16°C° 0 mm 2 mps 741 mmHg 50%
    18:00 +14°C° 0 mm 2 mps 741 mmHg 57%
    19:00 +13°C° 0 mm 2 mps 742 mmHg 61%
    20:00 +12°C° 0 mm 1 mps 742 mmHg 65%
    21:00 +11°C° 0 mm 1 mps 743 mmHg 69%
    22:00 +10°C° 0 mm 1 mps 743 mmHg 72%
    23:00 +9°C° 0 mm 1 mps 743 mmHg 75%

    Day after tomorrow, 23 March, Saturday

    Time Temperature Precipitation Wind Pressure Humidity
    00:00 +9°C° 0 mm 1 mps 743 mmHg 78%
    01:00 +8°C° 0 mm 1 mps 743 mmHg 80%
    02:00 +7°C° 0 mm 1 mps 743 mmHg 81%
    03:00 +7°C° 0 mm 1 mps 743 mmHg 83%
    04:00 +6°C° 0 mm 1 mps 744 mmHg 83%
    05:00 +6°C° 0 mm 1 mps 744 mmHg 82%
    06:00 +5°C° 0 mm 1 mps 744 mmHg 82%
    07:00 +6°C° 0 mm 2 mps 745 mmHg 70%
    08:00 +9°C° 0 mm 2 mps 746 mmHg 59%
    09:00 +12°C° 0 mm 2 mps 746 mmHg 48%
    10:00 +14°C° 0 mm 2 mps 746 mmHg 42%
    11:00 +18°C° 0 mm 1 mps 746 mmHg 36%
    12:00 +20°C° 0 mm 1 mps 746 mmHg 29%
    13:00 +21°C° 0 mm 1 mps 745 mmHg 29%
    14:00 +20°C° 0 mm 0 mps 745 mmHg 28%
    15:00 +21°C° 0 mm 0 mps 744 mmHg 27%
    16:00 +18°C° 0 mm 0 mps 744 mmHg 32%
    17:00 +16°C° 0 mm 0 mps 744 mmHg 36%
    18:00 +15°C° 0 mm 1 mps 744 mmHg 41%
    19:00 +14°C° 0 mm 1 mps 744 mmHg 44%
    20:00 +13°C° 0 mm 1 mps 745 mmHg 47%
    21:00 +12°C° 0 mm 1 mps 745 mmHg 50%
    22:00 +11°C° 0 mm 1 mps 745 mmHg 52%
    23:00 +11°C° 0 mm 1 mps 745 mmHg 53%

    24 March, Sunday

    Time Temperature Precipitation Wind Pressure Humidity
    00:00 +10°C° 0 mm 1 mps 745 mmHg 55%
    01:00 +10°C° 0 mm 1 mps 744 mmHg 57%
    02:00 +10°C° 0 mm 1 mps 744 mmHg 58%
    03:00 +9°C° 0 mm 1 mps 744 mmHg 60%
    04:00 +9°C° 0 mm 1 mps 744 mmHg 60%
    05:00 +9°C° 0 mm 1 mps 744 mmHg 61%
    06:00 +9°C° 0 mm 1 mps 745 mmHg 62%
    07:00 +11°C° 0 mm 1 mps 745 mmHg 57%
    08:00 +13°C° 0 mm 2 mps 745 mmHg 52%
    09:00 +16°C° 0 mm 2 mps 746 mmHg 47%
    10:00 +17°C° 0 mm 2 mps 745 mmHg 45%
    11:00 +19°C° 0 mm 3 mps 745 mmHg 42%
    12:00 +21°C° 0 mm 3 mps 745 mmHg 39%
    13:00 +21°C° 0 mm 3 mps 744 mmHg 39%
    14:00 +21°C° 0 mm 3 mps 743 mmHg 39%
    15:00 +21°C° 0 mm 2 mps 742 mmHg 39%
    16:00 +20°C° 0 mm 2 mps 742 mmHg 45%
    17:00 +19°C° 0 mm 2 mps 742 mmHg 51%
    18:00 +19°C° 0 mm 1 mps 742 mmHg 57%
    19:00 +17°C° 0 mm 2 mps 742 mmHg 59%
    20:00 +16°C° 0 mm 2 mps 742 mmHg 60%
    21:00 +16°C° 0 mm 2 mps 742 mmHg 62%
    22:00 +15°C° 0 mm 2 mps 741 mmHg 65%
    23:00 +15°C° 0 mm 2 mps 741 mmHg 69%

    25 March, Monday

    Time Temperature Precipitation Wind Pressure Humidity
    00:00 +14°C° 0 mm 2 mps 740 mmHg 72%
    01:00 +14°C° 0 mm 2 mps 740 mmHg 77%
    02:00 +14°C° 0 mm 2 mps 739 mmHg 82%
    03:00 +13°C° 0 mm 2 mps 739 mmHg 86%
    04:00 +13°C° 0.3 mm 2 mps 739 mmHg 88%
    05:00 +13°C° 0.3 mm 3 mps 739 mmHg 89%
    06:00 +13°C° 0.3 mm 3 mps 739 mmHg 91%
    07:00 +13°C° 1 mm 3 mps 739 mmHg 91%
    08:00 +14°C° 1 mm 3 mps 739 mmHg 91%
    09:00 +14°C° 1 mm 3 mps 739 mmHg 91%
    10:00 +16°C° 0.1 mm 3 mps 739 mmHg 89%
    11:00 +17°C° 0.1 mm 3 mps 738 mmHg 86%
    12:00 +18°C° 0.1 mm 3 mps 738 mmHg 84%
    13:00 +19°C° 0.5 mm 4 mps 738 mmHg 80%
    14:00 +20°C° 0.5 mm 4 mps 738 mmHg 76%
    15:00 +20°C° 0.5 mm 4 mps 737 mmHg 72%
    16:00 +19°C° 0.2 mm 4 mps 738 mmHg 74%
    17:00 +18°C° 0.2 mm 3 mps 738 mmHg 76%
    18:00 +17°C° 0.2 mm 3 mps 738 mmHg 78%
    19:00 +14°C° 0 mm 3 mps 739 mmHg 80%
    20:00 +13°C° 0 mm 3 mps 740 mmHg 83%
    21:00 +11°C° 0 mm 3 mps 740 mmHg 86%
    22:00 +11°C° 0 mm 3 mps 740 mmHg 87%
    23:00 +10°C° 0 mm 3 mps 741 mmHg 88%

    26 March, Tuesday

    Time Temperature Precipitation Wind Pressure Humidity
    00:00 +9°C° 0 mm 3 mps 741 mmHg 89%
    01:00 +9°C° 0 mm 3 mps 741 mmHg 89%
    02:00 +9°C° 0 mm 3 mps 741 mmHg 89%
    03:00 +8°C° 0 mm 3 mps 741 mmHg 88%
    04:00 +8°C° 0 mm 3 mps 742 mmHg 87%
    05:00 +6°C° 0 mm 4 mps 742 mmHg 86%
    06:00 +5°C° 0 mm 4 mps 743 mmHg 85%
    07:00 +6°C° 0 mm 4 mps 743 mmHg 75%
    08:00 +7°C° 0 mm 4 mps 744 mmHg 65%
    09:00 +8°C° 0 mm 4 mps 745 mmHg 54%
    10:00 +11°C° 0 mm 4 mps 745 mmHg 48%
    11:00 +12°C° 0 mm 4 mps 745 mmHg 41%
    12:00 +13°C° 0 mm 4 mps 745 mmHg 34%
    13:00 +13°C° 0 mm 4 mps 744 mmHg 35%
    14:00 +14°C° 0 mm 4 mps 744 mmHg 35%
    15:00 +14°C° 0 mm 4 mps 744 mmHg 35%
    16:00 +12°C° 0 mm 4 mps 744 mmHg 41%
    17:00 +11°C° 0 mm 3 mps 745 mmHg 46%
    18:00 +10°C° 0 mm 3 mps 745 mmHg 52%
    19:00 +8°C° 0 mm 3 mps 746 mmHg 53%
    20:00 +7°C° 0 mm 3 mps 746 mmHg 55%
    21:00 +6°C° 0 mm 2 mps 747 mmHg 56%
    22:00 +5°C° 0 mm 2 mps 747 mmHg 58%
    23:00 +4°C° 0 mm 2 mps 747 mmHg 59%
    Show more